Tacoma MET current weather conditions

sailwx.info

Wind from 129 at 1 knots gusting 1

Last reported at 2020-Jan-25 09:42 UTC.
Time now 2020-Jan-25 10:28 UTC

Location: N 47°17' W 122°25'.
View on Google Maps.

See reports from other nearby stations

  
Tides and Currents Weather Stations Pressure Air Temp Water Temp Dewpoint Dewpoint Depression Visibility Wind Speed Wind Dir Waves Ship Positions
date/time (UTC)wind fromknots sea level pressurealtimeterstation pressurevisibilityair tempwater tempwave heightnotes
2020-Jan-25 09:42 129 1 gusting 1
2020-Jan-25 09:36 132 1 gusting 1
2020-Jan-25 09:30 129 1 gusting 2
2020-Jan-25 09:24 131 1 gusting 1
2020-Jan-25 09:18 052
2020-Jan-25 09:12 047 1 gusting 2
2020-Jan-25 09:00 119 1 gusting 1
2020-Jan-25 08:54 132 1 gusting 2
2020-Jan-25 08:48 153 2 gusting 2
2020-Jan-25 08:42 143 1 gusting 1
2020-Jan-25 08:36 143 1 gusting 2
2020-Jan-25 08:30 131 2 gusting 2
2020-Jan-25 08:24 131 2 gusting 3
2020-Jan-25 08:18 149 3 gusting 3
2020-Jan-25 08:12 146 2 gusting 2
2020-Jan-25 08:06 131 2 gusting 3
2020-Jan-25 07:54 131 2 gusting 3
2020-Jan-25 07:48 138 4 gusting 5
2020-Jan-25 07:42 134 4 gusting 5
2020-Jan-25 07:36 141 4 gusting 5
2020-Jan-25 07:30 139 3 gusting 4
2020-Jan-25 07:24 138 3 gusting 4
2020-Jan-25 07:18 128 3 gusting 5
2020-Jan-25 07:12 147 3 gusting 4
2020-Jan-25 07:06 140 3 gusting 4
2020-Jan-25 07:00 138 3 gusting 5
2020-Jan-25 06:48 144 3 gusting 4
2020-Jan-25 06:42 134 3 gusting 5
2020-Jan-25 06:36 139 4 gusting 6
2020-Jan-25 06:30 132 4 gusting 6
2020-Jan-25 06:24 123 5 gusting 6
2020-Jan-25 06:18 124 5 gusting 6
2020-Jan-25 06:12 134 5 gusting 6
2020-Jan-25 06:06 139 4 gusting 5
2020-Jan-25 05:54 148 3 gusting 3
2020-Jan-25 05:42 146 3 gusting 4
2020-Jan-25 05:36 133 3 gusting 3
2020-Jan-25 05:30 130 3 gusting 4
2020-Jan-25 05:24 138 3 gusting 4
2020-Jan-25 05:18 131 3 gusting 4
2020-Jan-25 05:12 125 3 gusting 3
2020-Jan-25 05:00 126 2 gusting 3
2020-Jan-25 04:54 111 2 gusting 3
2020-Jan-25 04:48 110 2 gusting 4
2020-Jan-25 04:42 102 3 gusting 4
2020-Jan-25 04:36 116 3 gusting 3
2020-Jan-25 04:30 124 2 gusting 3
2020-Jan-25 04:24 131 2 gusting 4
2020-Jan-25 04:12 127 4 gusting 5
2020-Jan-25 04:06 154 3 gusting 6
2020-Jan-25 04:00 174 2 gusting 6
2020-Jan-25 03:54 174 3 gusting 5
2020-Jan-25 03:48 160 4 gusting 8
2020-Jan-25 03:42 183 5 gusting 12
2020-Jan-25 03:36 179 7 gusting 10
2020-Jan-25 03:30 144 4 gusting 6
2020-Jan-25 03:24 133 3 gusting 4
2020-Jan-25 03:18 126 3 gusting 5
2020-Jan-25 03:12 136 5 gusting 6
2020-Jan-25 03:06 146 3 gusting 4
2020-Jan-25 03:00 112 3 gusting 3
2020-Jan-25 02:54 292
2020-Jan-25 02:42 063
2020-Jan-25 02:36 067 0 gusting 2
2020-Jan-25 02:30 107 2 gusting 2
2020-Jan-25 02:24 088 2 gusting 3
2020-Jan-25 02:18 081 1 gusting 1
2020-Jan-25 02:12 056 1 gusting 2
2020-Jan-25 02:06 118 1 gusting 3
2020-Jan-25 02:00 114 2 gusting 2
2020-Jan-25 01:54 045
2020-Jan-25 01:42 329 1 gusting 2
2020-Jan-25 01:36 314 2 gusting 2
2020-Jan-25 01:30 301 1 gusting 2
2020-Jan-25 01:24 300
2020-Jan-25 01:18 263 1 gusting 4
2020-Jan-25 01:12 280 3 gusting 4
2020-Jan-25 01:06 294 0 gusting 2
2020-Jan-25 01:00 250 1 gusting 4
2020-Jan-25 00:54 247 3 gusting 4
2020-Jan-25 00:48 226 3 gusting 6
2020-Jan-25 00:42 235 5 gusting 6
2020-Jan-25 00:36 213 4 gusting 6
2020-Jan-25 00:24 229 7 gusting 10
2020-Jan-25 00:18 224 6 gusting 7
2020-Jan-25 00:12 221 6 gusting 9
2020-Jan-25 00:06 247 4 gusting 5
2020-Jan-24 23:48 263 4 gusting 6
2020-Jan-24 23:42 246 4 gusting 6
2020-Jan-24 23:36 243 3 gusting 5
2020-Jan-24 23:30 252 5 gusting 7
2020-Jan-24 23:24 258 4 gusting 6
2020-Jan-24 23:18 260 6 gusting 8
2020-Jan-24 23:06 249 9 gusting 13
2020-Jan-24 23:00 257 11 gusting 13
2020-Jan-24 22:54 263 8 gusting 10
2020-Jan-24 22:48 277 9 gusting 11
2020-Jan-24 22:42 267 9 gusting 10
2020-Jan-24 22:36 252 6 gusting 11
2020-Jan-24 22:30 242 8 gusting 13
2020-Jan-24 22:24 224 6 gusting 13
2020-Jan-24 22:18 231 9 gusting 13
2020-Jan-24 22:12 206 14 gusting 18
2020-Jan-24 22:06 207 9 gusting 15
2020-Jan-24 21:54 225 12 gusting 17
2020-Jan-24 21:48 237 8 gusting 12
2020-Jan-24 21:42 229 7 gusting 12
2020-Jan-24 21:30 205 7 gusting 13
2020-Jan-24 21:24 202 13 gusting 15
2020-Jan-24 21:12 202 15 gusting 19
2020-Jan-24 21:06 195 14 gusting 19
2020-Jan-24 21:00 192 12 gusting 19
2020-Jan-24 20:54 197 11 gusting 22
2020-Jan-24 20:48 193 14 gusting 18
2020-Jan-24 20:42 196 15 gusting 20
2020-Jan-24 20:36 205 12 gusting 16
2020-Jan-24 20:30 199 13 gusting 21
2020-Jan-24 20:24 198 16 gusting 22
2020-Jan-24 20:18 203 16 gusting 23
2020-Jan-24 20:12 204 13 gusting 22
2020-Jan-24 20:06 202 13 gusting 19
2020-Jan-24 20:00 204 13 gusting 20
2020-Jan-24 19:54 194 19 gusting 23
2020-Jan-24 19:48 200 15 gusting 21
2020-Jan-24 19:42 198 15 gusting 19
2020-Jan-24 19:36 205 13 gusting 19
2020-Jan-24 19:30 199 12 gusting 19
2020-Jan-24 19:24 202 12 gusting 18
2020-Jan-24 19:18 207 11 gusting 17
2020-Jan-24 19:12 201 13 gusting 18
2020-Jan-24 19:06 197 15 gusting 20
2020-Jan-24 19:00 198 13 gusting 20
2020-Jan-24 18:54 207 13 gusting 19
2020-Jan-24 18:48 202 12 gusting 16
2020-Jan-24 18:42 198 10 gusting 13
2020-Jan-24 18:36 189 7 gusting 13
2020-Jan-24 18:30 207 6 gusting 13
2020-Jan-24 18:24 213 8 gusting 14
2020-Jan-24 18:18 196 12 gusting 15
2020-Jan-24 18:12 188 6 gusting 9
2020-Jan-24 18:06 159 6 gusting 9
2020-Jan-24 18:00 160 6 gusting 10
2020-Jan-24 17:54 154 6 gusting 10
2020-Jan-24 17:48 147 5 gusting 6
2020-Jan-24 17:42 155 4 gusting 7
2020-Jan-24 17:36 149 5 gusting 7
2020-Jan-24 17:30 142 3 gusting 6
2020-Jan-24 17:24 136 3 gusting 5
2020-Jan-24 17:18 142 3 gusting 5
2020-Jan-24 17:12 166 2 gusting 4
2020-Jan-24 17:06 174 3 gusting 6
2020-Jan-24 17:00 166 3 gusting 6
2020-Jan-24 16:54 156 5 gusting 6
2020-Jan-24 16:48 168 3 gusting 7
2020-Jan-24 16:42 142 6 gusting 9
2020-Jan-24 16:36 139 6 gusting 8
2020-Jan-24 16:30 133 6 gusting 9
2020-Jan-24 16:24 135 6 gusting 9
2020-Jan-24 16:18 136 5 gusting 7
2020-Jan-24 16:12 140 6 gusting 7
2020-Jan-24 16:06 138 5 gusting 6
2020-Jan-24 16:00 139 5 gusting 6
2020-Jan-24 15:54 139 4 gusting 5
2020-Jan-24 15:48 143 4 gusting 5
2020-Jan-24 15:42 150 3 gusting 5
2020-Jan-24 15:24 151 4 gusting 6
2020-Jan-24 15:18 160 2 gusting 3
2020-Jan-24 15:12 161 2 gusting 3
2020-Jan-24 15:00 152 2 gusting 3
2020-Jan-24 14:54 151 3 gusting 3
2020-Jan-24 14:48 148 2 gusting 3
2020-Jan-24 14:42 153 2 gusting 3
2020-Jan-24 14:30 150 3 gusting 6
2020-Jan-24 14:24 148 4 gusting 6
2020-Jan-24 14:18 152 4 gusting 6
2020-Jan-24 14:12 150 4 gusting 6
2020-Jan-24 14:06 149 3 gusting 6
2020-Jan-24 14:00 148 3 gusting 5
2020-Jan-24 13:54 146 3 gusting 6
2020-Jan-24 13:48 149 3 gusting 6
2020-Jan-24 13:42 152 2 gusting 5
2020-Jan-24 13:36 159 2 gusting 4
2020-Jan-24 13:30 156 3 gusting 5
2020-Jan-24 13:24 161 3 gusting 4
2020-Jan-24 13:18 176 3 gusting 5
2020-Jan-24 13:12 162 2 gusting 5
2020-Jan-24 13:06 160 2 gusting 6
2020-Jan-24 13:00 176 3 gusting 6
2020-Jan-24 12:54 179 4 gusting 8
2020-Jan-24 12:42 195 5 gusting 8
2020-Jan-24 12:36 178 3 gusting 7
2020-Jan-24 12:30 180 3 gusting 7
2020-Jan-24 12:24 180 4 gusting 7
2020-Jan-24 12:18 166 3 gusting 7
2020-Jan-24 12:12 152 5 gusting 6
2020-Jan-24 12:06 147 5 gusting 6
2020-Jan-24 12:00 147 3 gusting 6
2020-Jan-24 11:54 153 5 gusting 6
2020-Jan-24 11:48 154 4 gusting 8
2020-Jan-24 11:42 155 5 gusting 7
2020-Jan-24 11:30 148 6 gusting 8
2020-Jan-24 11:24 156 4 gusting 5
2020-Jan-24 11:18 151 4 gusting 6
2020-Jan-24 11:12 138 4 gusting 5
2020-Jan-24 11:06 143 3 gusting 5
2020-Jan-24 11:00 158 1 gusting 4
2020-Jan-24 10:54 177 1 gusting 3
2020-Jan-24 10:42 159 3 gusting 6
2020-Jan-24 10:30 147 0 gusting 5
2020-Jan-24 10:24 179 4 gusting 9
2020-Jan-24 10:18 191 5 gusting 6
2020-Jan-24 10:12 189 4 gusting 6
2020-Jan-24 10:06 163 3 gusting 5
2020-Jan-24 10:00 150 4 gusting 7
2020-Jan-24 09:54 141 4 gusting 6
2020-Jan-24 09:48 147 3 gusting 4
2020-Jan-24 09:42 131 3 gusting 4
2020-Jan-24 09:36 143 4 gusting 5
2020-Jan-24 09:30 146 4 gusting 5
2020-Jan-24 09:24 139 3 gusting 4
2020-Jan-24 09:18 136 3 gusting 4
2020-Jan-24 09:12 147 3 gusting 4
2020-Jan-24 09:06 131 4 gusting 4
2020-Jan-24 09:00 135 3 gusting 5
2020-Jan-24 08:54 118 3 gusting 6
2020-Jan-24 08:48 129 5 gusting 6
2020-Jan-24 08:42 126 4 gusting 5
2020-Jan-24 08:36 125 3 gusting 5
2020-Jan-24 08:30 141 3 gusting 6
2020-Jan-24 08:24 135 5 gusting 6
2020-Jan-24 08:18 141 3 gusting 5
2020-Jan-24 08:12 188 3 gusting 3
2020-Jan-24 08:06 148 3 gusting 4
2020-Jan-24 08:00 140 4 gusting 5
2020-Jan-24 07:54 131 3 gusting 6
2020-Jan-24 07:48 126 3 gusting 6
2020-Jan-24 07:42 119 4 gusting 5
2020-Jan-24 07:36 111 4 gusting 6
2020-Jan-24 07:30 081 1 gusting 2
2020-Jan-24 07:24 095 2 gusting 3
2020-Jan-24 07:18 099 3 gusting 5
2020-Jan-24 07:06 103 4 gusting 5
2020-Jan-24 07:00 112 2 gusting 3
2020-Jan-24 06:54 112 2 gusting 3
2020-Jan-24 06:48 109 2 gusting 4
2020-Jan-24 06:42 110 3 gusting 3
2020-Jan-24 06:36 116 2 gusting 3
2020-Jan-24 06:30 127 2 gusting 4
2020-Jan-24 06:24 114 3 gusting 5
2020-Jan-24 06:18 108 2 gusting 4
2020-Jan-24 06:12 112 3 gusting 4
2020-Jan-24 06:06 124 4 gusting 4
2020-Jan-24 06:00 134 3 gusting 3
2020-Jan-24 05:54 149 2 gusting 3
2020-Jan-24 05:48 148 2 gusting 3
2020-Jan-24 05:42 146 3 gusting 3
2020-Jan-24 05:36 148 2 gusting 3
2020-Jan-24 05:30 130 3 gusting 3
2020-Jan-24 05:24 140 3 gusting 4
2020-Jan-24 05:12 136 4 gusting 5
2020-Jan-24 05:06 137 4 gusting 6
2020-Jan-24 05:00 137 4 gusting 6
2020-Jan-24 04:54 143 5 gusting 6
2020-Jan-24 04:48 127 3 gusting 5
2020-Jan-24 04:42 121 3 gusting 5
2020-Jan-24 04:36 107 4 gusting 6
2020-Jan-24 04:30 106 3 gusting 5
2020-Jan-24 04:24 115 2 gusting 5
2020-Jan-24 04:18 106 5 gusting 6
2020-Jan-24 04:12 128 3 gusting 5
2020-Jan-24 04:06 117 1 gusting 4
2020-Jan-24 04:00 144 3 gusting 5
2020-Jan-24 03:54 157 3 gusting 5
2020-Jan-24 03:48 143 4 gusting 6
2020-Jan-24 03:42 144 5 gusting 7
2020-Jan-24 03:36 134 6 gusting 9
2020-Jan-24 03:24 122 7 gusting 11
2020-Jan-24 03:18 136 9 gusting 12
2020-Jan-24 03:06 128 10 gusting 13
2020-Jan-24 03:00 128 7 gusting 13
2020-Jan-24 02:54 122 12 gusting 16
2020-Jan-24 02:48 116 11 gusting 13
2020-Jan-24 02:42 128 11 gusting 13
2020-Jan-24 02:36 135 10 gusting 13
2020-Jan-24 02:30 143 10 gusting 13
2020-Jan-24 02:24 132 10 gusting 17
2020-Jan-24 02:18 124 9 gusting 13
2020-Jan-24 02:12 127 8 gusting 11
2020-Jan-24 02:06 133 7 gusting 10
2020-Jan-24 02:00 124 5 gusting 6
2020-Jan-24 01:54 120 4 gusting 6
2020-Jan-24 01:48 121 5 gusting 7
2020-Jan-24 01:42 129 6 gusting 7
2020-Jan-24 01:36 126 6 gusting 7
2020-Jan-24 01:30 131 6 gusting 7
2020-Jan-24 01:24 133 6 gusting 7
2020-Jan-24 01:18 138 6 gusting 9
2020-Jan-24 01:12 135 6 gusting 8
2020-Jan-24 00:54 142 7 gusting 10
2020-Jan-24 00:48 140 7 gusting 9
2020-Jan-24 00:42 134 7 gusting 9
2020-Jan-24 00:36 138 6 gusting 8
2020-Jan-24 00:24 142 6 gusting 7
2020-Jan-24 00:18 147 6 gusting 7
2020-Jan-24 00:12 143 5 gusting 8
2020-Jan-24 00:06 144 6 gusting 8
2020-Jan-23 23:48 151 3 gusting 6
2020-Jan-23 23:42 136 5 gusting 6
2020-Jan-23 23:36 137 4 gusting 6
2020-Jan-23 23:30 150 2 gusting 4
2020-Jan-23 23:24 160 2 gusting 4
2020-Jan-23 23:18 161 1 gusting 4
2020-Jan-23 23:12 138 2 gusting 2
2020-Jan-23 23:06 144 2 gusting 4
2020-Jan-23 23:00 133 3 gusting 6
2020-Jan-23 22:54 145 3 gusting 6
2020-Jan-23 22:48 126 3 gusting 6
2020-Jan-23 22:42 133 6 gusting 7
2020-Jan-23 22:30 125 5 gusting 6
2020-Jan-23 22:24 138 5 gusting 6
2020-Jan-23 22:18 136 6 gusting 6
2020-Jan-23 22:12 137 5 gusting 7
2020-Jan-23 22:06 135 6 gusting 7
2020-Jan-23 22:00 131 5 gusting 7
2020-Jan-23 21:54 135 5 gusting 7
2020-Jan-23 21:48 136 6 gusting 7
2020-Jan-23 21:42 140 6 gusting 8
2020-Jan-23 21:36 137 5 gusting 8
2020-Jan-23 21:24 140 5 gusting 7
2020-Jan-23 21:18 146 4 gusting 7
2020-Jan-23 21:12 146 6 gusting 8
2020-Jan-23 21:06 151 5 gusting 7
2020-Jan-23 21:00 152 3 gusting 8
2020-Jan-23 20:54 139 6 gusting 13
2020-Jan-23 20:48 131 7 gusting 13
2020-Jan-23 20:42 142 8 gusting 11
2020-Jan-23 20:36 141 10 gusting 13
2020-Jan-23 20:30 144 9 gusting 13
2020-Jan-23 20:24 139 7 gusting 10
2020-Jan-23 20:18 149 6 gusting 9
2020-Jan-23 20:12 153 7 gusting 12
2020-Jan-23 20:06 155 6 gusting 8
2020-Jan-23 20:00 152 5 gusting 7
2020-Jan-23 19:54 155 3 gusting 6
2020-Jan-23 19:42 155 5 gusting 8
2020-Jan-23 19:36 166 5 gusting 7
2020-Jan-23 19:30 149 5 gusting 10
2020-Jan-23 19:24 145 4 gusting 6
2020-Jan-23 19:18 162 3 gusting 9
2020-Jan-23 19:12 133 6 gusting 10
2020-Jan-23 19:06 131 6 gusting 9
2020-Jan-23 19:00 137 6 gusting 9
2020-Jan-23 18:48 143 6 gusting 9
2020-Jan-23 18:42 133 6 gusting 9
2020-Jan-23 18:36 136 6 gusting 6
2020-Jan-23 18:30 133 5 gusting 7
2020-Jan-23 18:24 141 5 gusting 9
2020-Jan-23 18:18 137 5 gusting 6
2020-Jan-23 18:06 130 5 gusting 8
2020-Jan-23 18:00 121 6 gusting 9
2020-Jan-23 17:54 124 6 gusting 11
2020-Jan-23 17:42 119 8 gusting 10
2020-Jan-23 17:36 121 7 gusting 10
2020-Jan-23 17:30 122 7 gusting 9
2020-Jan-23 17:24 122 7 gusting 9
2020-Jan-23 17:18 122 6 gusting 11
2020-Jan-23 17:12 118 7 gusting 11
2020-Jan-23 17:06 127 4 gusting 7
2020-Jan-23 17:00 111 6 gusting 7
2020-Jan-23 16:54 099 4 gusting 6
2020-Jan-23 16:48 096 2 gusting 3
2020-Jan-23 16:42 067 1 gusting 1
2020-Jan-23 16:36 008 1 gusting 1
2020-Jan-23 16:30 338 1 gusting 1
2020-Jan-23 16:24 073
2020-Jan-23 16:18 320 5 gusting 6
2020-Jan-23 16:12 297 6 gusting 6
2020-Jan-23 16:06 291 3 gusting 4
2020-Jan-23 16:00 288 4 gusting 7
2020-Jan-23 15:54 293 8 gusting 9
2020-Jan-23 15:48 303 7 gusting 7
2020-Jan-23 15:42 220 2 gusting 3
2020-Jan-23 15:36 149 2 gusting 5
2020-Jan-23 15:30 139 5 gusting 6
2020-Jan-23 15:18 142 5 gusting 6
2020-Jan-23 15:12 148 5 gusting 7
2020-Jan-23 15:00 135 6 gusting 7
2020-Jan-23 14:54 130 5 gusting 7
2020-Jan-23 14:48 134 6 gusting 7
2020-Jan-23 14:36 138 5 gusting 6
2020-Jan-23 14:30 133 6 gusting 7
2020-Jan-23 14:24 130 4 gusting 6
2020-Jan-23 14:18 136 5 gusting 6
2020-Jan-23 14:12 144 5 gusting 7
2020-Jan-23 14:06 141 5 gusting 7
2020-Jan-23 13:54 146 6 gusting 7
2020-Jan-23 13:48 147 6 gusting 7
2020-Jan-23 13:42 146 5 gusting 9
2020-Jan-23 13:36 148 6 gusting 8
2020-Jan-23 13:30 149 5 gusting 7
2020-Jan-23 13:24 144 5 gusting 6
2020-Jan-23 13:18 153 5 gusting 6
2020-Jan-23 13:12 150 4 gusting 6
2020-Jan-23 13:06 147 4 gusting 6
2020-Jan-23 13:00 147 4 gusting 5
2020-Jan-23 12:54 151 3 gusting 6
2020-Jan-23 12:42 150 3 gusting 6
2020-Jan-23 12:36 151 3 gusting 5
2020-Jan-23 12:30 158 3 gusting 6
2020-Jan-23 12:24 144 5 gusting 7
2020-Jan-23 12:18 140 3 gusting 6
2020-Jan-23 12:12 137 4 gusting 5
2020-Jan-23 12:06 129 4 gusting 5
2020-Jan-23 12:00 137 4 gusting 5
2020-Jan-23 11:54 131 5 gusting 6
2020-Jan-23 11:48 129 5 gusting 7
2020-Jan-23 11:42 128 5 gusting 6
2020-Jan-23 11:36 125 6 gusting 7
2020-Jan-23 11:30 126 6 gusting 8
2020-Jan-23 11:24 136 6 gusting 10
2020-Jan-23 11:18 140 7 gusting 11
2020-Jan-23 11:12 151 5 gusting 7
2020-Jan-23 11:06 144 6 gusting 8
2020-Jan-23 10:54 146 6 gusting 7
2020-Jan-23 10:48 149 6 gusting 7
2020-Jan-23 10:42 145 6 gusting 7
2020-Jan-23 10:36 148 6 gusting 8
2020-Jan-23 10:30 142 6 gusting 7
2020-Jan-23 10:24 145 5 gusting 7
2020-Jan-23 10:18 145 4 gusting 6
2020-Jan-23 10:12 144 4 gusting 6
2020-Jan-23 10:06 147 4 gusting 5
2020-Jan-23 10:00 135 4 gusting 5